Home   Weather   New York   Past weeks

Flag for USA Past Weather in New York, New York, USA — Yesterday and Last 2 Weeks

Now
57 °F

Low clouds.


Feels Like: 53 °F
Forecast: 59 / 75 °F
Wind: 16 mph from East

Location: New York City - Central Park

Current Time: May 25, 2017 at 10:01:22 pm

Latest Report: May 25, 2017 at 8:51 pm


Visibility: 7 mi

Pressure: 29.49 "Hg

Humidity: 96%

Dew Point: 56 °F

Location of New YorkLocation

Past Weather in New York — Graph

°F

New York Temperature Yesterday

Maximum temperature yesterday: 67 °F (at 11:51 am)
Minimum temperature yesterday: 56 °F (at 5:51 am)
Average temperature yesterday: 62 °F

High & Low Weather Summary for the Past Weeks

 TemperatureHumidityPressure
High92 °F (May 18, 12:51 pm)100% (May 22, 2:07 pm)30.38 "Hg (May 22, 2:07 pm)
Low45 °F (May 13, 8:51 pm)27% (May 21, 1:51 pm)29.49 "Hg (May 25, 8:51 pm)
Average62 °F68%29.92 "Hg
* Reported May 11 2:51 pm — May 25 8:51 pm, New York. Weather by CustomWeather, © 2017

Note: Actual official high and low records may vary slightly from our data, if they occured in-between our weather recording intervals... More about our weather records

Advertising

New York Weather History for the Previous 24 Hours

Scroll right to see more
 ConditionsComfort  
Time TempWeatherWind HumidityBarometerVisibility
8:51 pm
Thu, May 25
57 °FLow clouds.16 mph96%29.49 "Hg7 mi
7:51 pm57 °FFog.7 mph96%29.52 "Hg2 mi
6:51 pm58 °FFog.3 mph97%29.53 "Hg1 mi
6:24 pm57 °FFog.8 mph100%29.56 "Hg2 mi
5:51 pm57 °FFog.10 mph96%29.54 "Hg2 mi
5:31 pm58 °FFog.9 mph97%29.57 "Hg6 mi
4:51 pm58 °FFog.10 mph97%29.53 "Hg4 mi
4:29 pm58 °FFog.9 mph97%29.58 "Hg3 mi
3:51 pm57 °FFog.9 mph100%29.56 "Hg2 mi
3:13 pm58 °FLight rain. Fog.5 mph97%29.60 "Hg2 mi
2:51 pm57 °FLight rain. Fog.9 mph96%29.57 "Hg3 mi
2:27 pm57 °FLight rain. Fog.8 mph100%29.61 "Hg1 mi
2:19 pm57 °FLight rain. Fog.7 mph96%29.62 "Hg2 mi
2:03 pm57 °FLight rain. Fog.13 mph96%29.61 "Hg3 mi
1:51 pm57 °FFog.9 mph96%29.58 "Hg2 mi
1:14 pm57 °FLight rain. Fog.9 mph96%29.63 "Hg2 mi
12:47 pm57 °FLight rain. Fog.9 mph100%29.59 "Hg3 mi
12:33 pm57 °FLight rain. Fog.10 mph96%29.63 "Hg2 mi
11:51 am57 °FRain. Fog.9 mph96%29.61 "Hg1 mi
10:51 am57 °FLight rain. Fog.5 mph96%29.64 "Hg2 mi
10:20 am56 °FLight rain. Fog.9 mph100%29.66 "Hg3 mi
10:03 am56 °FLight rain. Fog.7 mph97%29.66 "Hg3 mi
9:51 am56 °FRain. Fog.8 mph100%29.63 "Hg1 mi
9:20 am56 °FLight rain. Fog.10 mph97%29.68 "Hg2 mi
9:02 am56 °FRain. Fog.8 mph97%29.68 "Hg1 mi
8:15 am56 °FLight rain. Fog.10 mph97%29.69 "Hg2 mi
7:51 am56 °FLight rain. Fog.7 mph97%29.69 "Hg4 mi
6:51 am56 °FLight rain. Fog.10 mph97%29.70 "Hg5 mi
5:51 am56 °FLight rain. Mostly cloudy.9 mph93%29.72 "Hg7 mi
5:10 am56 °FLow clouds.5 mph93%29.77 "Hg8 mi
4:51 am57 °FLight rain. Overcast.5 mph90%29.74 "Hg10 mi
3:51 am57 °FOvercast.7 mph83%29.75 "Hg10 mi
3:13 am58 °FOvercast.9 mph81%29.78 "Hg10 mi
2:51 am58 °FOvercast.6 mph81%29.76 "Hg10 mi
2:08 am59 °FMostly cloudy.6 mph78%29.81 "Hg10 mi
1:51 am59 °FOvercast.7 mph75%29.79 "Hg10 mi
12:51 am59 °FPassing clouds.6 mph78%29.80 "Hg10 mi
11:51 pm
Wed, May 24
59 °FClear.3 mph75%29.82 "Hg10 mi
10:51 pm60 °FClear.6 mph69%29.82 "Hg10 mi
Weather by CustomWeather, © 2017

See weather overviewHow to use our weather pages